sat.trackr.live / text

‹ back to catalog

STARLINK-4253

NORAD 53004 · 2022-076U

PAYLOAD ACTIVE UNKNOWN

§ Identity

Operator
Country
US
Launch date
2022-07-07
Launch site
AFETR
Launch vehicle
Mass (kg)
RCS (m²)

Purposes: comms

External: N2YO · Heavens-Above · Gunter

§ Orbital elements

Epoch: 2026-05-25T04:27:18.328320Z

Period
95.44 min
Inclination
53.2134°
Eccentricity
0.0001697
Mean motion
15.08857566 rev/d
Perigee alt
538.5 km
Apogee alt
540.9 km
Semi-major
6,917.8 km
B*
6.2707e-5
RAAN
110.7159°
Arg perigee
75.0139°
Mean anomaly
285.1040°
Rev number
21,439

§ Raw data

STARLINK-42531 53004U 22076U   26145.18562880  .00000710  00000+0  62707-4 0  99982 53004  53.2134 110.7159 0001697  75.0139 285.1040 15.08857566214394

JSON: /api/v1/satellites/53004 · /tle

For live sub-satellite position, see the globe view (requires WebGL).

§ Visibility from observer

Set your observer location to see the next 7 days of passes ≥ 10°. The values pass through the URL so the page stays shareable.

No JS? Fill the form by hand. The geolocation button needs JavaScript.